• In Deutschland
  • Länderverzeichnis
  • Für 7 Tage
  • Wassertemperatur
  • Satellitenkarten
  • Wetterkarte
  • Widgets
  • user-avatar
    Anmelden

    Stündliche Wetter Kinshasa

    Heute, 18 September, Dienstag

    Zeit Temperatur Niederschläge Wind Luftdruck Luftfeuchtigkeit
    00:00 +22°C° 0 mm 1 m/S 706 mmHg 96%
    01:00 +19°C° 0 mm 0 m/S 707 mmHg 97%
    02:00 +19°C° 0 mm 0 m/S 707 mmHg 97%
    03:00 +19°C° 0 mm 0 m/S 707 mmHg 97%
    04:00 +21°C° 0 mm 1 m/S 707 mmHg 98%
    05:00 +21°C° 0 mm 1 m/S 707 mmHg 96%
    06:00 +22°C° 0 mm 1 m/S 707 mmHg 95%
    07:00 +23°C° 0 mm 1 m/S 708 mmHg 92%
    08:00 +25°C° 0 mm 1 m/S 708 mmHg 83%
    09:00 +27°C° 0 mm 1 m/S 708 mmHg 75%
    10:00 +30°C° 0 mm 1 m/S 708 mmHg 66%
    11:00 +31°C° 0 mm 1 m/S 708 mmHg 61%
    12:00 +32°C° 0 mm 1 m/S 707 mmHg 57%
    13:00 +31°C° 0 mm 0 m/S 708 mmHg 55%
    14:00 +31°C° 0.4 mm 0 m/S 707 mmHg 58%
    15:00 +30°C° 0.4 mm 0 m/S 707 mmHg 61%
    16:00 +29°C° 0.4 mm 0 m/S 706 mmHg 65%
    17:00 +27°C° 0.5 mm 0 m/S 706 mmHg 72%
    18:00 +25°C° 0.5 mm 0 m/S 706 mmHg 79%
    19:00 +23°C° 0.5 mm 0 m/S 706 mmHg 86%
    20:00 +24°C° 0.2 mm 1 m/S 707 mmHg 88%
    21:00 +24°C° 0.2 mm 1 m/S 707 mmHg 89%
    22:00 +23°C° 0.2 mm 1 m/S 707 mmHg 91%
    23:00 +23°C° 0 mm 1 m/S 707 mmHg 92%

    Morgen, 19 September, Mittwoch

    Zeit Temperatur Niederschläge Wind Luftdruck Luftfeuchtigkeit
    00:00 +23°C° 0 mm 1 m/S 707 mmHg 94%
    01:00 +22°C° 0 mm 1 m/S 707 mmHg 95%
    02:00 +22°C° 0 mm 1 m/S 707 mmHg 96%
    03:00 +22°C° 0 mm 1 m/S 707 mmHg 97%
    04:00 +22°C° 0 mm 1 m/S 707 mmHg 97%
    05:00 +22°C° 0.4 mm 1 m/S 707 mmHg 96%
    06:00 +22°C° 0.4 mm 1 m/S 707 mmHg 96%
    07:00 +23°C° 0.4 mm 1 m/S 708 mmHg 95%
    08:00 +25°C° 0.1 mm 1 m/S 708 mmHg 86%
    09:00 +27°C° 0.1 mm 1 m/S 709 mmHg 76%
    10:00 +30°C° 0.1 mm 2 m/S 709 mmHg 67%
    11:00 +30°C° 0.9 mm 1 m/S 708 mmHg 69%
    12:00 +30°C° 0.9 mm 1 m/S 708 mmHg 71%
    13:00 +31°C° 0.9 mm 1 m/S 707 mmHg 73%
    14:00 +30°C° 1.6 mm 1 m/S 707 mmHg 77%
    15:00 +27°C° 1.6 mm 0 m/S 706 mmHg 80%
    16:00 +26°C° 1.6 mm 0 m/S 706 mmHg 84%
    17:00 +25°C° 0.4 mm 0 m/S 706 mmHg 87%
    18:00 +23°C° 0.4 mm 0 m/S 706 mmHg 91%
    19:00 +22°C° 0.4 mm 0 m/S 706 mmHg 94%
    20:00 +22°C° 0.3 mm 0 m/S 707 mmHg 94%
    21:00 +21°C° 0.3 mm 0 m/S 707 mmHg 94%
    22:00 +21°C° 0.3 mm 0 m/S 708 mmHg 95%
    23:00 +21°C° 0.1 mm 0 m/S 707 mmHg 95%

    übermorgen, 20 September, Donnerstag

    Zeit Temperatur Niederschläge Wind Luftdruck Luftfeuchtigkeit
    00:00 +21°C° 0.1 mm 0 m/S 707 mmHg 95%
    01:00 +22°C° 0.1 mm 1 m/S 707 mmHg 95%
    02:00 +22°C° 0 mm 1 m/S 707 mmHg 95%
    03:00 +22°C° 0 mm 1 m/S 706 mmHg 96%
    04:00 +22°C° 0 mm 1 m/S 706 mmHg 96%
    05:00 +22°C° 0 mm 1 m/S 707 mmHg 95%
    06:00 +22°C° 0 mm 1 m/S 707 mmHg 95%
    07:00 +23°C° 0 mm 1 m/S 707 mmHg 94%
    08:00 +25°C° 0 mm 1 m/S 708 mmHg 85%
    09:00 +27°C° 0 mm 1 m/S 708 mmHg 76%
    10:00 +30°C° 0 mm 1 m/S 709 mmHg 67%
    11:00 +31°C° 0.4 mm 1 m/S 708 mmHg 63%
    12:00 +32°C° 0.4 mm 1 m/S 708 mmHg 60%
    13:00 +33°C° 0.4 mm 1 m/S 707 mmHg 57%
    14:00 +31°C° 0.5 mm 1 m/S 706 mmHg 64%
    15:00 +30°C° 0.5 mm 1 m/S 705 mmHg 71%
    16:00 +29°C° 0.5 mm 1 m/S 705 mmHg 78%
    17:00 +28°C° 0.7 mm 1 m/S 705 mmHg 82%
    18:00 +26°C° 0.7 mm 1 m/S 705 mmHg 86%
    19:00 +25°C° 0.7 mm 1 m/S 705 mmHg 90%
    20:00 +24°C° 0.1 mm 1 m/S 706 mmHg 90%
    21:00 +24°C° 0.1 mm 1 m/S 706 mmHg 90%
    22:00 +23°C° 0.1 mm 1 m/S 707 mmHg 91%
    23:00 +21°C° 0.8 mm 0 m/S 706 mmHg 92%

    21 September, Freitag

    Zeit Temperatur Niederschläge Wind Luftdruck Luftfeuchtigkeit
    00:00 +21°C° 0.8 mm 0 m/S 706 mmHg 93%
    01:00 +20°C° 0.8 mm 0 m/S 706 mmHg 94%
    02:00 +20°C° 0.6 mm 0 m/S 706 mmHg 95%
    03:00 +20°C° 0.6 mm 0 m/S 705 mmHg 95%
    04:00 +20°C° 0.6 mm 0 m/S 705 mmHg 95%
    05:00 +20°C° 0.2 mm 0 m/S 706 mmHg 95%
    06:00 +22°C° 0.2 mm 1 m/S 706 mmHg 95%
    07:00 +23°C° 0.2 mm 1 m/S 707 mmHg 95%
    08:00 +25°C° 0 mm 1 m/S 707 mmHg 87%
    09:00 +27°C° 0 mm 1 m/S 708 mmHg 79%
    10:00 +29°C° 0 mm 1 m/S 709 mmHg 71%
    11:00 +30°C° 0.4 mm 1 m/S 708 mmHg 68%
    12:00 +30°C° 0.4 mm 1 m/S 707 mmHg 65%
    13:00 +31°C° 0.4 mm 1 m/S 706 mmHg 62%
    14:00 +31°C° 0.7 mm 1 m/S 706 mmHg 64%
    15:00 +31°C° 0.7 mm 1 m/S 706 mmHg 66%
    16:00 +31°C° 0.7 mm 1 m/S 705 mmHg 69%
    17:00 +29°C° 1.3 mm 1 m/S 705 mmHg 76%
    18:00 +26°C° 1.3 mm 1 m/S 705 mmHg 83%
    19:00 +24°C° 1.3 mm 1 m/S 705 mmHg 91%
    20:00 +24°C° 0.7 mm 1 m/S 706 mmHg 92%
    21:00 +24°C° 0.7 mm 1 m/S 706 mmHg 94%
    22:00 +23°C° 0.7 mm 1 m/S 707 mmHg 96%
    23:00 +23°C° 0.2 mm 1 m/S 707 mmHg 96%

    22 September, Samstag

    Zeit Temperatur Niederschläge Wind Luftdruck Luftfeuchtigkeit
    00:00 +23°C° 0.2 mm 1 m/S 706 mmHg 96%
    01:00 +22°C° 0.2 mm 1 m/S 706 mmHg 97%
    02:00 +22°C° 0.2 mm 1 m/S 706 mmHg 97%
    03:00 +22°C° 0.2 mm 1 m/S 706 mmHg 98%
    04:00 +22°C° 0.2 mm 1 m/S 706 mmHg 98%
    05:00 +22°C° 0 mm 1 m/S 706 mmHg 98%
    06:00 +23°C° 0 mm 1 m/S 707 mmHg 97%
    07:00 +23°C° 0 mm 1 m/S 708 mmHg 96%
    08:00 +25°C° 0 mm 1 m/S 708 mmHg 88%
    09:00 +27°C° 0 mm 2 m/S 709 mmHg 79%
    10:00 +29°C° 0 mm 2 m/S 709 mmHg 70%
    11:00 +30°C° 0 mm 2 m/S 708 mmHg 65%
    12:00 +31°C° 0 mm 2 m/S 707 mmHg 60%
    13:00 +33°C° 0 mm 1 m/S 706 mmHg 54%
    14:00 +32°C° 0.1 mm 1 m/S 706 mmHg 58%
    15:00 +32°C° 0.1 mm 1 m/S 705 mmHg 61%
    16:00 +31°C° 0.1 mm 1 m/S 705 mmHg 64%
    17:00 +27°C° 0.3 mm 0 m/S 705 mmHg 70%
    18:00 +26°C° 0.3 mm 0 m/S 705 mmHg 76%
    19:00 +24°C° 0.3 mm 0 m/S 705 mmHg 83%
    20:00 +23°C° 0.9 mm 0 m/S 706 mmHg 86%
    21:00 +22°C° 0.9 mm 0 m/S 706 mmHg 90%
    22:00 +22°C° 0.9 mm 0 m/S 707 mmHg 93%
    23:00 +23°C° 1 mm 1 m/S 706 mmHg 94%

    23 September, Sonntag

    Zeit Temperatur Niederschläge Wind Luftdruck Luftfeuchtigkeit
    00:00 +23°C° 1 mm 1 m/S 706 mmHg 96%
    01:00 +23°C° 1 mm 1 m/S 706 mmHg 97%
    02:00 +22°C° 0.2 mm 1 m/S 706 mmHg 97%
    03:00 +22°C° 0.2 mm 1 m/S 706 mmHg 97%
    04:00 +22°C° 0.2 mm 1 m/S 706 mmHg 98%
    05:00 +22°C° 0 mm 1 m/S 706 mmHg 97%
    06:00 +23°C° 0 mm 1 m/S 707 mmHg 97%
    07:00 +23°C° 0 mm 1 m/S 708 mmHg 96%
    08:00 +24°C° 0.6 mm 2 m/S 708 mmHg 92%
    09:00 +26°C° 0.6 mm 2 m/S 708 mmHg 89%
    10:00 +27°C° 0.6 mm 2 m/S 709 mmHg 85%
    11:00 +28°C° 1.2 mm 2 m/S 708 mmHg 83%
    12:00 +28°C° 1.2 mm 2 m/S 707 mmHg 81%
    13:00 +29°C° 1.2 mm 1 m/S 707 mmHg 79%
    14:00 +28°C° 1.3 mm 1 m/S 706 mmHg 84%
    15:00 +26°C° 1.3 mm 1 m/S 706 mmHg 90%
    16:00 +25°C° 1.3 mm 1 m/S 705 mmHg 95%
    17:00 +25°C° 0 mm 1 m/S 706 mmHg 95%
    18:00 +22°C° 0 mm 0 m/S 707 mmHg 96%
    19:00 +22°C° 0 mm 0 m/S 707 mmHg 96%
    20:00 +21°C° 0 mm 0 m/S 707 mmHg 96%
    21:00 +21°C° 0 mm 0 m/S 707 mmHg 96%
    22:00 +20°C° 0 mm 0 m/S 708 mmHg 96%
    23:00 +22°C° 0 mm 1 m/S 707 mmHg 97%
    Mehr zeigen